When you browse on this site, cookies collect data to enhance your experience and personalize the content and advertising you see.
Visit our Privacy Policy to learn more. By continuing to use the site, you agree to this use of cookies and data.
  • En España
  • Lista de países
  • Para 7 días
  • Temperatura del agua
  • Mapa Satelital
  • El tiempo en el mapa
  • Informadores
  • user-avatar
    Iniciar sesión

    Tiempo cada hora Jaú

    Hoy, 23 Enero, Miércoles

    Tiempo Temperatura Precipitaciones Viento Presión Humedad
    00:00 +18°C° 0 mm 2 mps 763 mmHg 62%
    01:00 +18°C° 0 mm 1 mps 762 mmHg 64%
    02:00 +18°C° 0 mm 1 mps 762 mmHg 66%
    03:00 +15°C° 0 mm 0 mps 762 mmHg 66%
    04:00 +15°C° 0 mm 0 mps 762 mmHg 67%
    05:00 +15°C° 0 mm 0 mps 762 mmHg 68%
    06:00 +14°C° 0 mm 0 mps 763 mmHg 69%
    07:00 +16°C° 0 mm 0 mps 763 mmHg 62%
    08:00 +17°C° 0 mm 0 mps 763 mmHg 55%
    09:00 +19°C° 0 mm 0 mps 763 mmHg 48%
    10:00 +19°C° 0 mm 0 mps 763 mmHg 45%
    11:00 +20°C° 0 mm 0 mps 763 mmHg 41%
    12:00 +22°C° 0 mm 1 mps 762 mmHg 38%
    13:00 +22°C° 0 mm 1 mps 762 mmHg 37%
    14:00 +23°C° 0 mm 1 mps 762 mmHg 36%
    15:00 +23°C° 0 mm 1 mps 761 mmHg 35%
    16:00 +21°C° 0 mm 2 mps 762 mmHg 38%
    17:00 +21°C° 0 mm 2 mps 762 mmHg 41%
    18:00 +21°C° 0 mm 3 mps 762 mmHg 44%
    19:00 +21°C° 0 mm 3 mps 762 mmHg 48%
    20:00 +21°C° 0 mm 4 mps 762 mmHg 51%
    21:00 +21°C° 0 mm 5 mps 763 mmHg 54%
    22:00 +21°C° 0 mm 5 mps 762 mmHg 54%
    23:00 +21°C° 0 mm 6 mps 762 mmHg 54%

    Mañana, 24 Enero, Jueves

    Tiempo Temperatura Precipitaciones Viento Presión Humedad
    00:00 +21°C° 0 mm 6 mps 762 mmHg 54%
    01:00 +21°C° 0 mm 6 mps 762 mmHg 52%
    02:00 +21°C° 0 mm 5 mps 762 mmHg 50%
    03:00 +21°C° 0 mm 4 mps 762 mmHg 48%
    04:00 +20°C° 0 mm 4 mps 763 mmHg 50%
    05:00 +20°C° 0 mm 4 mps 763 mmHg 52%
    06:00 +20°C° 0 mm 4 mps 763 mmHg 54%
    07:00 +21°C° 0 mm 4 mps 763 mmHg 51%
    08:00 +21°C° 0 mm 4 mps 764 mmHg 49%
    09:00 +22°C° 0 mm 5 mps 764 mmHg 47%
    10:00 +23°C° 0 mm 5 mps 764 mmHg 42%
    11:00 +23°C° 0 mm 5 mps 764 mmHg 37%
    12:00 +25°C° 0 mm 5 mps 763 mmHg 33%
    13:00 +25°C° 0 mm 4 mps 763 mmHg 31%
    14:00 +25°C° 0 mm 4 mps 762 mmHg 29%
    15:00 +26°C° 0 mm 3 mps 762 mmHg 28%
    16:00 +25°C° 0 mm 3 mps 762 mmHg 28%
    17:00 +25°C° 0 mm 3 mps 762 mmHg 28%
    18:00 +25°C° 0 mm 3 mps 763 mmHg 29%
    19:00 +23°C° 0 mm 4 mps 763 mmHg 36%
    20:00 +23°C° 0 mm 5 mps 763 mmHg 42%
    21:00 +23°C° 0 mm 6 mps 763 mmHg 49%
    22:00 +22°C° 0 mm 6 mps 763 mmHg 53%
    23:00 +22°C° 0 mm 6 mps 763 mmHg 57%

    Pasado mañana, 25 Enero, Viernes

    Tiempo Temperatura Precipitaciones Viento Presión Humedad
    00:00 +22°C° 0 mm 6 mps 763 mmHg 61%
    01:00 +22°C° 0 mm 6 mps 762 mmHg 63%
    02:00 +21°C° 0 mm 6 mps 762 mmHg 65%
    03:00 +21°C° 0 mm 6 mps 762 mmHg 68%
    04:00 +21°C° 0 mm 5 mps 762 mmHg 71%
    05:00 +21°C° 0 mm 5 mps 762 mmHg 74%
    06:00 +21°C° 0 mm 5 mps 762 mmHg 77%
    07:00 +21°C° 0 mm 5 mps 763 mmHg 74%
    08:00 +22°C° 0 mm 5 mps 763 mmHg 71%
    09:00 +22°C° 0 mm 5 mps 764 mmHg 67%
    10:00 +23°C° 0 mm 5 mps 763 mmHg 61%
    11:00 +25°C° 0 mm 5 mps 763 mmHg 55%
    12:00 +25°C° 0 mm 5 mps 763 mmHg 49%
    13:00 +26°C° 0 mm 4 mps 762 mmHg 44%
    14:00 +26°C° 0 mm 4 mps 761 mmHg 38%
    15:00 +27°C° 0 mm 4 mps 761 mmHg 33%
    16:00 +27°C° 0 mm 4 mps 761 mmHg 32%
    17:00 +27°C° 0 mm 4 mps 761 mmHg 30%
    18:00 +27°C° 0 mm 4 mps 761 mmHg 28%
    19:00 +26°C° 0 mm 5 mps 762 mmHg 33%
    20:00 +26°C° 0 mm 6 mps 762 mmHg 39%
    21:00 +24°C° 0 mm 6 mps 762 mmHg 44%
    22:00 +24°C° 0 mm 6 mps 762 mmHg 47%
    23:00 +23°C° 0 mm 6 mps 762 mmHg 49%

    26 Enero, Sábado

    Tiempo Temperatura Precipitaciones Viento Presión Humedad
    00:00 +23°C° 0 mm 6 mps 762 mmHg 52%
    01:00 +23°C° 0 mm 6 mps 762 mmHg 54%
    02:00 +23°C° 0 mm 6 mps 761 mmHg 56%
    03:00 +22°C° 0 mm 6 mps 761 mmHg 58%
    04:00 +22°C° 0 mm 6 mps 762 mmHg 55%
    05:00 +22°C° 0 mm 5 mps 762 mmHg 52%
    06:00 +22°C° 0 mm 5 mps 762 mmHg 50%
    07:00 +23°C° 0 mm 5 mps 763 mmHg 45%
    08:00 +25°C° 0 mm 5 mps 763 mmHg 39%
    09:00 +26°C° 0 mm 5 mps 764 mmHg 34%
    10:00 +27°C° 0 mm 5 mps 763 mmHg 30%
    11:00 +28°C° 0 mm 4 mps 763 mmHg 26%
    12:00 +29°C° 0 mm 4 mps 763 mmHg 23%
    13:00 +29°C° 0 mm 4 mps 762 mmHg 22%
    14:00 +30°C° 0 mm 4 mps 762 mmHg 21%
    15:00 +30°C° 0 mm 3 mps 761 mmHg 21%
    16:00 +30°C° 0 mm 3 mps 761 mmHg 22%
    17:00 +29°C° 0 mm 4 mps 762 mmHg 23%
    18:00 +29°C° 0 mm 4 mps 762 mmHg 23%
    19:00 +28°C° 0 mm 4 mps 762 mmHg 26%
    20:00 +28°C° 0 mm 5 mps 763 mmHg 29%
    21:00 +27°C° 0 mm 5 mps 763 mmHg 32%
    22:00 +27°C° 0 mm 6 mps 763 mmHg 35%
    23:00 +26°C° 0 mm 6 mps 763 mmHg 39%

    27 Enero, Domingo

    Tiempo Temperatura Precipitaciones Viento Presión Humedad
    00:00 +26°C° 0 mm 6 mps 763 mmHg 43%
    01:00 +24°C° 0 mm 6 mps 763 mmHg 44%
    02:00 +24°C° 0 mm 6 mps 763 mmHg 45%
    03:00 +24°C° 0 mm 6 mps 762 mmHg 47%
    04:00 +23°C° 0 mm 6 mps 763 mmHg 47%
    05:00 +23°C° 0 mm 5 mps 763 mmHg 48%
    06:00 +23°C° 0 mm 5 mps 763 mmHg 49%
    07:00 +25°C° 0 mm 5 mps 764 mmHg 46%
    08:00 +25°C° 0 mm 5 mps 764 mmHg 43%
    09:00 +26°C° 0 mm 5 mps 765 mmHg 40%
    10:00 +27°C° 0 mm 5 mps 764 mmHg 37%
    11:00 +28°C° 0 mm 5 mps 764 mmHg 34%
    12:00 +29°C° 0 mm 5 mps 764 mmHg 30%
    13:00 +30°C° 0 mm 5 mps 763 mmHg 30%
    14:00 +30°C° 0 mm 5 mps 763 mmHg 29%
    15:00 +32°C° 0 mm 4 mps 762 mmHg 28%
    16:00 +30°C° 0 mm 5 mps 762 mmHg 30%
    17:00 +29°C° 0 mm 5 mps 763 mmHg 31%
    18:00 +29°C° 0 mm 5 mps 763 mmHg 33%
    19:00 +28°C° 0 mm 6 mps 763 mmHg 39%
    20:00 +27°C° 0 mm 6 mps 764 mmHg 45%
    21:00 +26°C° 0 mm 7 mps 764 mmHg 51%
    22:00 +24°C° 0 mm 7 mps 764 mmHg 54%
    23:00 +24°C° 0 mm 7 mps 764 mmHg 56%

    28 Enero, Lunes

    Tiempo Temperatura Precipitaciones Viento Presión Humedad
    00:00 +24°C° 0 mm 7 mps 764 mmHg 58%
    01:00 +24°C° 0 mm 7 mps 763 mmHg 60%
    02:00 +23°C° 0 mm 7 mps 763 mmHg 61%
    03:00 +23°C° 0 mm 7 mps 763 mmHg 63%
    04:00 +23°C° 0 mm 7 mps 763 mmHg 64%
    05:00 +23°C° 0 mm 7 mps 764 mmHg 66%
    06:00 +23°C° 0 mm 7 mps 764 mmHg 68%
    07:00 +23°C° 0 mm 7 mps 764 mmHg 63%
    08:00 +24°C° 0 mm 7 mps 765 mmHg 58%
    09:00 +24°C° 0 mm 7 mps 765 mmHg 53%
    10:00 +26°C° 0 mm 7 mps 765 mmHg 47%
    11:00 +28°C° 0 mm 7 mps 764 mmHg 41%
    12:00 +29°C° 0 mm 6 mps 764 mmHg 36%
    13:00 +29°C° 0 mm 6 mps 763 mmHg 35%
    14:00 +29°C° 0 mm 5 mps 763 mmHg 34%
    15:00 +30°C° 0 mm 5 mps 763 mmHg 33%
    16:00 +29°C° 0 mm 5 mps 763 mmHg 35%
    17:00 +28°C° 0 mm 5 mps 763 mmHg 37%
    18:00 +28°C° 0 mm 4 mps 763 mmHg 38%
    19:00 +27°C° 0 mm 5 mps 763 mmHg 42%
    20:00 +27°C° 0 mm 6 mps 763 mmHg 46%
    21:00 +26°C° 0 mm 7 mps 763 mmHg 51%
    22:00 +26°C° 0 mm 7 mps 763 mmHg 53%
    23:00 +24°C° 0 mm 6 mps 763 mmHg 56%
    Mostrar más